Theta_e
337 337 337 338 340 340 339 336 331 325 325 327 329 333 335 334 335 331 332 337 337 335 333 334 335 337 338 339 340 340 340 341 342 341 341 340 342 341
336 335 335 336 338 340 340 338 334 329 324 327 328 330 333 333 335 332 332 334 334 334 333 332 334 334 335 336 337 337 337 338 338 336 336 335 335 335
335 334 334 335 334 334 335 336 335 331 325 324 327 329 329 330 329 327 328 326 329 333 331 331 331 332 333 334 334 335 335 334 334 333 333 332 332 332
332 332 332 336 333 334 333 333 335 328 325 321 324 326 327 327 326 324 326 328 327 331 330 329 328 328 328 328 327 327 327 328 329 329 329 330 330 330
333 332 332 332 331 331 333 333 333 329 326 324 321 322 324 326 324 325 323 324 328 330 328 327 327 327 325 324 323 321 319 320 321 322 323 325 326 327
331 330 330 331 330 329 331 330 328 327 327 324 322 320 322 324 324 321 319 322 322 325 325 325 326 328 326 325 324 321 317 315 314 316 317 317 318 321
328 327 325 329 334 332 327 323 324 325 324 323 322 320 319 321 320 322 320 319 320 320 319 318 317 317 320 324 326 324 319 317 315 314 314 313 313 315
327 323 323 331 329 331 330 327 324 323 322 321 320 320 320 321 322 322 320 317 315 317 316 316 315 314 316 317 323 322 318 317 316 314 313 312 312 312
327 324 324 327 327 327 326 326 325 325 325 323 322 322 321 322 323 321 320 318 315 318 315 312 314 313 316 316 320 320 317 316 315 314 313 312 311 310
328 326 324 325 323 325 325 324 323 322 322 322 321 320 320 322 325 324 323 320 320 319 318 312 311 311 312 313 319 319 316 314 314 313 312 310 308 307
326 327 326 325 321 319 324 322 321 321 321 321 321 320 319 319 321 323 319 318 316 318 317 313 312 313 311 310 311 318 315 313 312 312 312 309 306 305
326 326 322 324 317 315 323 321 319 320 321 321 321 317 317 318 320 325 322 318 316 315 318 315 311 310 308 308 310 311 314 311 310 309 310 308 305 302
325 324 325 317 312 310 315 324 321 320 320 320 318 318 316 315 316 319 322 322 318 318 321 318 314 312 312 306 304 307 310 306 308 307 305 304 304 304
322 324 324 314 308 306 310 315 314 317 320 318 316 315 319 319 317 317 317 318 322 323 324 323 319 317 312 309 308 307 308 308 306 305 305 305 304 304
323 320 316 314 309 307 309 310 311 320 318 316 317 319 320 321 318 317 317 317 317 317 322 325 323 318 318 316 313 309 305 305 305 306 304 303 304 302
321 322 318 315 315 318 316 315 316 316 318 319 318 316 318 320 320 320 318 320 319 320 320 320 320 320 320 320 317 313 310 311 306 306 306 304 304 304
322 319 315 313 315 318 318 317 313 314 312 312 312 313 314 312 316 321 320 319 319 318 318 320 322 322 323 322 318 321 316 312 309 306 306 304 303 303
322 323 318 316 316 316 317 317 316 315 315 314 313 313 313 313 314 315 317 321 318 319 319 318 316 316 319 321 325 321 316 316 315 309 307 305 305 306
325 324 322 318 317 319 320 321 320 321 320 318 317 315 316 315 315 315 314 314 311 312 309 310 311 311 308 308 313 317 320 317 316 313 310 308 310 314
324 324 323 323 322 322 320 319 320 319 318 317 316 316 317 316 316 315 315 314 314 313 313 313 312 312 311 311 311 313 308 316 313 313 314 313 314 313
320 319 320 319 319 320 319 319 317 315 314 314 312 313 312 313 311 311 311 306 308 309 307 308 310 311 313 314 310 311 314 309 314 314 313 310 309 309
320 319 318 318 318 317 315 313 312 310 309 309 308 307 307 306 306 305 305 303 303 308 308 309 310 309 311 310 308 308 307 307 308 309 311 312 312 307
319 318 316 314 312 310 310 309 307 307 307 307 307 308 306 305 304 304 304 308 309 309 308 306 306 306 304 307 307 307 308 309 309 308 308 309 308 308
Wind_Speed
5 4 4 3 4 5 4 4 5 4 4 3 2 1 1 3 4 3 4 7 8 7 7 7 6 6 7 8 9 10 9 8 9 15 13 12 12 13
3 5 4 3 4 3 4 4 3 4 3 2 3 1 1 2 5 3 5 6 7 8 8 7 6 5 6 7 8 10 13 16 15 16 12 12 12 11
3 5 5 4 4 4 3 3 4 4 3 1 1 2 2 4 3 3 4 4 3 7 8 7 7 7 8 8 10 12 14 16 15 15 14 14 14 12
5 4 5 3 5 5 4 5 5 5 4 5 2 2 2 3 3 4 3 3 3 7 8 8 8 8 9 10 10 11 14 13 14 13 13 13 12 12
5 5 5 3 3 2 3 3 3 4 3 4 3 1 2 1 3 3 3 3 2 7 7 7 8 8 9 9 11 12 10 11 10 10 11 11 11 10
4 4 4 4 4 3 2 2 3 3 3 4 3 3 2 2 2 2 2 2 2 3 5 5 5 7 7 7 9 10 9 10 10 10 10 10 9 10
2 2 4 5 5 5 3 4 5 3 4 4 4 2 3 3 3 3 2 2 1 1 1 2 2 2 2 5 6 9 8 9 9 9 9 9 9 9
6 3 2 3 3 6 8 10 8 7 4 3 3 5 5 4 4 5 4 3 3 3 3 2 2 2 2 2 5 7 8 9 9 9 9 9 9 10
6 5 3 3 3 1 5 8 9 8 6 6 6 4 5 6 6 6 4 3 3 2 3 2 3 3 4 3 7 7 7 8 8 8 8 9 9 9
6 7 6 5 4 4 4 4 4 5 5 4 6 6 5 6 9 7 7 4 2 2 4 3 3 4 3 4 10 10 8 8 9 10 10 9 10 9
6 6 6 6 7 8 5 5 4 3 1 7 8 8 8 10 7 5 4 4 3 3 5 4 3 3 3 3 5 13 12 12 11 11 11 11 10 9
4 6 8 8 10 11 6 6 5 4 3 2 2 4 4 5 11 8 6 6 2 1 5 5 3 4 2 3 3 4 6 12 14 13 13 13 12 4
5 4 4 9 11 13 9 6 6 5 5 4 2 2 3 2 2 3 4 4 4 3 4 5 4 2 1 0 2 3 5 3 5 5 10 12 12 10
4 3 4 8 9 9 8 8 8 7 4 3 2 2 3 3 4 4 5 4 3 4 4 9 3 5 4 3 3 2 4 4 4 6 6 6 11 14
4 4 5 7 9 5 5 7 8 4 4 4 4 4 3 3 4 3 4 5 4 3 3 4 3 3 3 4 3 4 4 5 7 7 6 8 9 6
7 4 5 3 5 6 4 5 3 4 4 3 3 2 2 3 4 4 3 3 4 6 6 7 6 5 4 5 4 3 4 4 4 7 7 5 7 9
5 4 3 3 3 3 4 5 4 4 4 3 3 3 1 1 2 4 3 3 5 4 4 3 6 8 7 7 5 6 5 4 5 4 5 7 8 9
6 6 5 6 7 7 6 5 3 5 4 4 3 3 3 3 2 2 2 4 5 7 3 2 1 2 2 6 14 7 5 5 5 7 5 6 7 8
6 8 8 8 5 6 6 5 5 5 4 3 3 3 3 2 3 2 1 2 1 1 2 1 1 1 2 4 2 9 6 4 3 4 6 6 6 7
4 4 5 5 6 6 4 3 4 4 3 3 3 3 2 2 3 2 2 1 1 1 1 2 1 0 2 1 2 2 3 3 1 3 4 5 7 9
3 3 3 4 4 4 4 4 5 6 6 3 3 3 3 3 3 3 3 4 2 2 2 2 2 3 2 1 1 2 4 9 7 6 3 4 4 2
4 4 4 6 5 4 4 4 5 6 4 4 4 4 3 3 3 3 3 3 2 1 1 2 3 2 1 2 3 4 4 4 4 12 13 10 4 3
6 6 5 6 6 5 5 5 5 4 4 4 4 4 3 2 2 2 2 2 1 1 2 2 3 3 2 3 4 4 6 6 4 4 4 8 9 12
Wind_Direction
222 213 210 223 210 204 199 195 166 184 207 214 219 274 193 95 112 95 89 82 74 67 59 56 61 78 87 94 100 112 125 136 136 121 121 139 133 126
208 209 214 223 221 207 206 204 184 152 191 170 196 170 179 115 103 75 79 80 88 78 65 55 66 99 97 97 102 111 116 117 121 117 120 113 110 108
212 211 224 218 218 219 213 194 178 160 137 145 125 174 129 132 98 86 89 76 49 67 60 49 63 92 105 106 112 119 119 117 118 119 115 112 113 124
224 221 229 215 234 229 210 210 197 174 136 151 146 173 183 140 113 100 71 58 66 59 64 56 55 76 92 100 99 105 109 107 110 116 120 120 123 132
201 208 226 225 249 258 247 211 165 152 150 144 138 115 82 109 117 108 96 71 66 74 62 68 78 82 89 102 106 98 99 110 123 130 129 127 133 144
210 223 216 215 228 211 212 159 132 135 122 132 114 109 111 117 94 114 100 58 54 59 52 55 63 89 103 111 119 130 134 136 138 132 134 137 140 140
190 254 259 239 218 195 151 138 122 113 128 129 121 124 129 145 173 140 116 120 72 100 75 25 44 46 83 132 150 150 143 146 147 148 151 149 149 145
189 212 259 262 251 190 159 159 162 152 152 144 142 170 172 159 147 167 135 145 196 190 156 192 158 197 198 181 186 172 165 165 167 166 164 161 159 155
189 189 206 220 230 243 160 158 169 182 170 164 167 179 173 179 167 169 175 151 192 158 121 183 172 208 194 200 211 196 182 179 180 176 172 171 171 168
215 197 186 203 202 188 159 171 178 185 183 178 185 191 179 172 191 188 180 156 112 130 166 181 165 222 185 210 211 206 201 190 188 186 184 182 181 180
223 210 197 200 198 184 179 192 163 202 195 219 202 189 174 169 159 136 162 157 205 207 194 152 189 169 195 211 204 205 198 196 195 192 190 190 188 186
206 227 211 197 184 181 178 180 182 207 171 137 90 78 162 186 178 192 172 185 150 160 200 195 155 155 222 216 210 191 197 202 196 195 195 193 187 174
193 197 218 208 196 189 186 186 202 157 174 159 144 114 126 150 193 222 190 185 179 231 172 168 178 189 251 126 265 201 189 178 194 204 204 199 192 184
185 191 219 212 210 196 182 199 179 158 146 163 165 198 188 191 198 201 219 239 262 240 174 197 200 173 178 180 226 173 201 196 179 199 192 191 202 199
153 170 193 222 188 193 208 175 156 166 159 169 200 200 190 179 168 185 216 234 253 257 237 225 220 183 186 217 217 195 165 213 199 209 198 196 199 187
168 171 157 164 208 160 149 193 192 156 170 183 199 221 159 172 194 177 192 211 232 254 221 215 218 199 213 220 216 236 202 218 183 210 208 208 210 212
176 126 162 148 175 189 180 173 206 172 175 179 176 185 215 205 230 180 186 171 227 240 241 212 219 211 217 226 229 228 217 226 210 165 180 220 224 220
189 197 188 189 184 177 187 177 202 191 182 208 207 194 198 222 223 279 185 215 213 259 248 198 217 230 244 241 216 237 218 225 197 178 184 202 244 218
214 205 193 180 176 155 174 173 203 201 155 188 186 176 185 219 179 215 169 199 173 188 337 57 106 172 215 261 336 222 235 198 179 201 199 200 236 248
206 159 152 157 160 164 154 132 134 135 114 112 112 117 109 166 163 155 148 309 73 51 342 359 7 302 276 264 311 311 285 294 208 256 248 234 246 281
125 99 101 94 93 109 119 123 145 151 104 119 99 96 97 115 104 115 120 118 122 80 35 360 277 324 295 305 254 282 285 217 226 250 254 233 240 236
89 98 86 96 98 94 99 101 81 71 86 93 100 96 92 88 91 89 82 88 59 40 336 308 327 353 337 228 267 273 295 302 247 252 247 236 253 253
108 106 100 96 94 98 98 95 97 103 99 102 121 128 125 105 93 99 115 153 140 71 46 28 11 27 352 312 300 294 301 310 332 335 329 344 284 272